Skip Page Navigation
NASA JPL Caltech
NASA Logo - Jet Propulsion Laboratory + View the NASA Portal
+ Center for Near-Earth Object Studies
JPL Home Earth Solar System Stars & Galaxies Technology
JPL Solar System Dynamics
BODIES ORBITS EPHEMERIDES TOOLS PHYSICAL DATA DISCOVERY FAQ SITE MAP
JPL Small-Body Database Browser
Search: [ help ]  
160209 (2002 CA96)
Classification: Main-belt Asteroid          SPK-ID: 2160209
Ephemeris | Orbit Diagram | Orbital Elements | Mission Design | Physical Parameters | Discovery Circumstances | Close-Approach Data ]

[ show orbit diagram ]
Orbital Elements at Epoch 2459000.5 (2020-May-31.0) TDB
Reference: JPL 18 (heliocentric ecliptic J2000)
 Element Value Uncertainty (1-sigma)   Units 
e .07024341933309419 5.896e-08  
a 3.073979390620422 2.2511e-08 au
q 2.858052567263782 1.7469e-07 au
i 10.8319483857946 5.8456e-06 deg
node 149.5227416340946 2.2309e-05 deg
peri 352.7113729894775 3.9065e-05 deg
M 154.1750203062927 3.4213e-05 deg
tp 2458157.434402614680
(2018-Feb-07.93440261)
0.00018312 TDB
period 1968.565429443485
5.39
2.1624e-05
5.92e-08
d
yr
n .1828742873442476 2.0088e-09 deg/d
Q 3.289906213977061 2.4092e-08 au
  Orbit Determination Parameters
   # obs. used (total)      439  
   data-arc span      6829 days (18.70 yr)  
   first obs. used      2002-02-05  
   last obs. used      2020-10-17  
   planetary ephem.      DE431  
   SB-pert. ephem.      SB431-N16  
   condition code      0  
   norm. resid. RMS      .58973  
   source      ORB  
   producer      Otto Matic  
   solution date      2020-Nov-12 12:29:51  

Additional Information
 Earth MOID = 1.87072 au 
 Jupiter MOID = 1.71382 au 
 T_jup = 3.199 
[ show covariance matrix ]

Ephemeris | Orbit Diagram | Orbital Elements | Mission Design | Physical Parameters | Discovery Circumstances | Close-Approach Data ]

Physical Parameter Table
Parameter Symbol Value Units Sigma Reference Notes
absolute magnitude H 15.3   n/a MPO436808  
diameter diameter 4.279 km 0.668 urn:nasa:pds:neowise_diameters_albedos::2.0[mainbelt] (http://adsabs.harvard.edu/abs/2011ApJ...741...68M)  
geometric albedo albedo 0.096   0.029 urn:nasa:pds:neowise_diameters_albedos::2.0[mainbelt] (http://adsabs.harvard.edu/abs/2011ApJ...741...68M)  

160209 (2002 CA96)          Discovered 2002-Feb-07 by LINEAR at Socorro
Reference: 20070730/Numbers.arcLast Updated: 2007-08-06

[ show close-approach data ]
Ephemeris | Orbit Diagram | Orbital Elements | Mission Design | Physical Parameters | Discovery Circumstances | Close-Approach Data ]
ABOUT SSD CREDITS/AWARDS PRIVACY/COPYRIGHT GLOSSARY LINKS
FirstGov 2020-Dec-02 11:25 UT
(server date/time)  
NASA Home Page
Site Manager:   Ryan S. Park
Webmaster  Alan B. Chamberlin